Hourly Data Report for October 10, 2016

All times are specified in Local Standard Time (LST). Add 1 hour to adjust for Daylight Saving Time where and when it is observed.

ARVIAT A
NUNAVUT

61°05'38.000" N
94°04'18.000" W
10.40 m
2300427
71174
YEK

Download Data

Hourly Data (October 2016)
Hourly Data Report for October 10, 2016
Temp Definition
°C
Dew Point Temp Definition
°C
Rel Hum Definition
%
Wind Dir Definition
10's deg

Wind Spd Definition
km/h
Visibility Definition
km
Stn Press Definition
kPa
Hmdx Definition


Wind Chill Definition


Weather Definition


TIME
00:00 Legend Double Dagger -0.7 -1.7 93 35 8 16.1 102.15   -4 LegendNANA
01:00 Legend Double Dagger -0.9 -1.6 95 34 8 16.1 102.14   -4 LegendNANA
02:00 Legend Double Dagger -1.0 -1.7 95 33 9 16.1 102.07   -4 LegendNANA
03:00 Legend Double Dagger -1.1 -1.7 96 35 9 16.1 102.02   -4 LegendNANA
04:00 Legend Double Dagger -0.7 -2.0 91 36 13 16.1 101.97   -5 LegendNANA
05:00 Legend Double Dagger -0.9 -1.9 93 35 13 16.1 101.96   -5 LegendNANA
06:00 Legend Double Dagger -0.8 -1.1 98 35 15 16.1 101.96   -5 LegendNANA
07:00 Legend Double Dagger -0.9 -2.0 92 36 13 16.1 101.96   -5 LegendNANA
08:00 Legend Double Dagger -2.2 -2.6 97 35 15 16.1 101.96   -7 LegendNANA
09:00 Legend Double Dagger -1.6 -3.2 89 36 17 16.1 101.94   -7 LegendNANA
10:00 Legend Double Dagger -1.9 -2.9 93 35 22 16.1 101.95   -8 LegendNANA
11:00 Legend Double Dagger -2.4 -3.0 96 34 22 4.8 101.93   -9 Snow
12:00 Legend Double Dagger -1.5 -3.0 90 33 21 16.1 101.90   -7 LegendNANA
13:00 Legend Double Dagger -1.0 -3.6 83 33 22 16.1 101.89   -7 LegendNANA
14:00 Legend Double Dagger -0.8 -4.0 79 33 24 16.1 101.89   -7 LegendNANA
15:00 Legend Double Dagger -0.6 -4.3 76 33 32 16.1 101.90   -7 LegendNANA
16:00 Legend Double Dagger -0.7 -5.2 72 31 30 16.1 101.89   -7 LegendNANA
17:00 Legend Double Dagger -0.8 -4.8 75 33 30 16.1 101.92   -8 LegendNANA
18:00 Legend Double Dagger -0.8 -5.6 70 33 32 16.1 101.93   -8 LegendNANA
19:00 Legend Double Dagger -1.1 -5.6 72 33 21 16.1 101.98   -7 LegendNANA
20:00 Legend Double Dagger -1.0 -5.6 71 33 24 16.1 101.97   -7 LegendNANA
21:00 Legend Double Dagger -1.3 -5.6 73 33 21 16.1 101.95   -7 LegendNANA
22:00 Legend Double Dagger -1.4 -5.4 75 30 15 16.1 101.94   -6 LegendNANA
23:00 Legend Double Dagger -1.5 -5.1 77 33 15 16.1 101.95   -6 LegendNANA

Notes on Data Quality.

Legend

  • E = Estimated
  • M = Missing
  • NA = Not Available
  • ‡ = Partner data that is not subject to review by the National Climate Archives
Date modified: